Northeast Philadelphia, PA

6:16 AM EST on December 15, 2019 (GMT -0500)
Northeast Philadelphia

Weather History for KPNE - August, 2019

Change the Weather History Date:

Friday, August 23, 2019

  Actual Average Record
Temperature  
Mean Temperature 72 °F -  
Max Temperature 77 °F 82 °F 90 °F (1996)
Min Temperature 66 °F 64 °F 57 °F (1999)
Cooling Degree Days 6    
Growing Degree Days 22 (Base 50)    
Moisture  
Dew Point 62 °F    
Average Humidity 74    
Maximum Humidity 88    
Minimum Humidity 64    
Precipitation  
Precipitation 0.06 in - - ()
Sea Level Pressure  
Sea Level Pressure 30.01 in    
Wind  
Wind Speed 5 mph ()    
Max Wind Speed 12 mph    
Max Gust Speed -    
Visibility 9.8 miles    
Events Rain    
Averages and records for this station are not official NWS values.
T = Trace of Precipitation, MM = Missing Value Source: Averaged Metar Reports

Daily Weather History Graph

Daily Weather History Graph

Search for Another Location

Airport or City:

Astronomy

Aug. 23, 2019 Rise Set
Actual Time 6:18 AM EDT 7:45 PM EDT
Civil Twilight 5:50 AM EDT 8:14 PM EDT
Nautical Twilight 5:16 AM EDT 8:48 PM EDT
Astronomical Twilight 4:40 AM EDT 9:24 PM EDT
Moon No Moon Rise 1:53 PM EDT (8/23)
Length of Visible Light 14h 23m
Length of Day
13h 26m
Waning Gibbous, 50% of the Moon is Illuminated
Aug 23
Waning Gibbous
Aug 30
New
Sep 5
First Quarter
Sep 14
Full
Sep 21
Last Quarter

Hourly Weather History & Observations

Time (EDT) Temp. Dew Point Humidity Pressure Visibility Wind Dir Wind Speed Gust Speed Precip Events Conditions
12:54 AM 77.0 °F 73.0 °F 88% 29.94 in 10.0 mi NW 3.5 mph - 0.02 in   Clear
1:54 AM 75.9 °F 72.0 °F 87% 29.92 in 10.0 mi North 6.9 mph - N/A   Clear
2:54 AM 75.0 °F 70.0 °F 84% 29.93 in 10.0 mi NNW 5.8 mph - N/A   Clear
3:54 AM 73.9 °F 69.1 °F 85% 29.93 in 10.0 mi North 4.6 mph - N/A   Partly Cloudy
4:54 AM 73.9 °F 69.1 °F 85% 29.94 in 10.0 mi North 6.9 mph - N/A   Mostly Cloudy
5:16 AM 73.9 °F 68.0 °F 82% 29.96 in 10.0 mi NE 11.5 mph - N/A   Overcast
5:54 AM 71.1 °F 62.1 °F 73% 29.98 in 10.0 mi NNE 9.2 mph - N/A   Overcast
6:54 AM 72.0 °F 63.0 °F 73% 30.01 in 10.0 mi North 4.6 mph - N/A   Overcast
7:54 AM 71.1 °F 59.0 °F 66% 30.02 in 10.0 mi NNE 9.2 mph - N/A   Overcast
8:54 AM 69.1 °F 57.9 °F 68% 30.04 in 10.0 mi NNE 9.2 mph - N/A   Overcast
9:54 AM 69.1 °F 57.9 °F 68% 30.05 in 10.0 mi NNE 11.5 mph - N/A   Overcast
10:54 AM 70.0 °F 57.9 °F 65% 30.05 in 10.0 mi NNE 6.9 mph - N/A   Overcast
11:54 AM 68.0 °F 57.9 °F 70% 30.05 in 4.0 mi North 8.1 mph - 0.00 in Rain Rain
12:54 PM 68.0 °F 57.0 °F 68% 30.04 in 10.0 mi North 3.5 mph - 0.03 in   Overcast
1:54 PM 70.0 °F 60.1 °F 71% 30.03 in 10.0 mi NE 4.6 mph - 0.00 in   Overcast
2:54 PM 70.0 °F 61.0 °F 73% 30.04 in 10.0 mi Calm Calm - 0.01 in   Overcast
3:54 PM 71.1 °F 63.0 °F 75% 30.02 in 10.0 mi NNW 6.9 mph - N/A   Clear
4:54 PM 72.0 °F 63.0 °F 73% 30.01 in 10.0 mi NW 3.5 mph - N/A   Clear
5:54 PM 73.0 °F 62.1 °F 68% 30.03 in 10.0 mi NNW 5.8 mph - N/A   Scattered Clouds
6:54 PM 73.9 °F 61.0 °F 64% 30.02 in 10.0 mi North 3.5 mph - N/A   Clear
7:54 PM 73.0 °F 61.0 °F 66% 30.03 in 10.0 mi NNW 3.5 mph - N/A   Clear
8:54 PM 69.1 °F 60.1 °F 73% 30.04 in 10.0 mi North 4.6 mph - N/A   Clear
9:54 PM 68.0 °F 57.9 °F 70% 30.06 in 10.0 mi NNW 5.8 mph - N/A   Clear
10:54 PM 66.9 °F 57.9 °F 73% 30.09 in 10.0 mi NNW 5.8 mph - N/A   Clear
11:54 PM 66.0 °F 57.0 °F 73% 30.09 in 10.0 mi NNW 9.2 mph - N/A   Clear